Date String (YYYY-MM-DD hh:mm:ss) UTC,Instrument flags,Ambient pressure (hPa),Sample flow (lpm),Bypass flow (lpm),Sample temperature (°C),Ambient temperature (°C),ASC tube jacket temperature (°C),LED temperature (°C),Box temperature (°C),Sample RH (%),Span deviation,Mass concentration (μg/m³),Mass concentration (μg/m³),Mass concentration (μg/m³)
DateTimeUTC,F1_M11,P_M11,Q1_M11,Q2_M11,T1_M11,T2_M11,T3_M11,T4_M11,T5_M11,U1_M11,ZSPAN_M11,X0_M11,X2_M11,X1_M11
2022-08-08 14:00:00,,0833.1,5.00,0.00,32.5,29.2,00.0,40.3,32.9,33.9,-000.0,0010.38,0006.98,0006.41
2022-08-08 14:01:00,,0833.1,5.00,0.00,32.6,28.7,00.0,40.3,32.7,34.5,-000.1,0010.47,0007.05,0006.47
2022-08-08 14:02:00,,0833.1,5.01,0.00,32.5,28.1,00.0,40.3,32.6,34.6,-000.4,0010.62,0007.14,0006.53
2022-08-08 14:03:00,,0833.2,5.00,0.00,32.4,27.9,00.0,40.3,32.5,34.2,-000.2,0010.72,0007.21,0006.59
2022-08-08 14:04:00,,0833.1,5.01,0.00,32.3,27.9,00.0,40.3,32.4,34.9,-000.1,0010.62,0007.18,0006.59
2022-08-08 14:05:00,,0833.1,4.99,0.00,32.2,28.0,00.0,40.3,32.4,34.9,0000.2,0010.55,0007.15,0006.58
2022-08-08 14:06:00,,0833.1,5.01,0.00,32.2,28.1,00.0,40.3,32.4,34.6,0000.3,0010.61,0007.14,0006.53
2022-08-08 14:07:00,,0833.1,5.00,0.00,32.2,28.3,00.0,40.3,32.5,34.9,0000.2,0010.64,0007.11,0006.50
2022-08-08 14:08:00,,0833.1,5.00,0.00,32.2,28.4,00.0,40.3,32.5,34.8,0000.5,0010.65,0007.08,0006.47
2022-08-08 14:09:00,,0833.1,5.00,0.00,32.2,28.6,00.0,40.3,32.5,34.7,0000.8,0010.62,0007.06,0006.44
2022-08-08 14:10:00,,0833.1,5.01,0.00,32.1,28.7,00.0,40.3,32.5,34.4,0000.6,0010.45,0007.01,0006.40
2022-08-08 14:11:00,,0833.1,5.00,0.00,32.1,28.8,00.0,40.3,32.5,34.7,0000.2,0010.33,0006.94,0006.35
2022-08-08 14:12:00,,0833.1,5.00,0.00,32.1,28.9,00.0,40.3,32.6,34.8,0000.4,0010.36,0006.91,0006.31
2022-08-08 14:13:00,,0833.1,5.00,0.00,32.1,29.0,00.0,40.3,32.6,33.8,0000.4,0010.27,0006.79,0006.19
2022-08-08 14:14:00,,0833.1,5.01,0.00,32.1,29.0,00.0,40.3,32.6,32.9,0000.5,0010.21,0006.61,0006.01
2022-08-08 14:15:00,,0833.1,5.00,0.00,32.0,29.1,00.0,40.3,32.6,33.6,0000.3,0009.99,0006.45,0005.88
2022-08-08 14:16:00,,0833.1,5.01,0.00,32.0,29.2,00.0,40.3,32.7,33.4,-000.1,0009.86,0006.33,0005.75
2022-08-08 14:17:00,,0833.1,5.00,0.00,32.0,29.2,00.0,40.3,32.7,33.4,0000.4,0009.77,0006.20,0005.63
2022-08-08 14:18:00,,0833.1,5.00,0.00,31.9,29.3,00.0,40.3,32.7,33.8,0000.6,0009.55,0006.05,0005.50
2022-08-08 14:19:00,,0833.1,5.00,0.00,31.9,28.8,00.0,40.3,32.6,34.3,0000.5,0009.45,0005.96,0005.41
2022-08-08 14:20:00,,0833.1,5.01,0.00,31.9,28.2,00.0,40.2,32.5,34.3,0000.8,0009.35,0005.85,0005.30
2022-08-08 14:21:00,,0833.2,5.00,0.00,31.8,27.9,00.0,40.2,32.4,34.8,0000.8,0009.29,0005.78,0005.23
2022-08-08 14:22:00,,0833.1,5.01,0.00,31.7,27.9,00.0,40.1,32.3,34.9,0000.8,0009.27,0005.74,0005.16
2022-08-08 14:23:00,,0833.1,5.01,0.00,31.6,28.0,00.0,40.1,32.3,33.9,0000.3,0009.13,0005.64,0005.05
2022-08-08 14:24:00,,0833.1,5.00,0.00,31.5,28.1,00.0,40.0,32.3,32.9,0000.0,0008.97,0005.57,0004.96
2022-08-08 14:25:00,,0833.1,5.01,0.00,31.5,28.2,00.0,40.0,32.3,33.0,0000.0,0008.79,0005.53,0004.94
2022-08-08 14:26:00,,0833.1,5.00,0.00,31.5,28.4,00.0,40.0,32.3,33.9,0000.0,0008.78,0005.50,0004.91
2022-08-08 14:27:00,,0833.1,4.99,0.00,31.4,28.5,00.0,40.0,32.3,35.3,0000.0,0008.93,0005.48,0004.89
2022-08-08 14:28:00,,0833.1,5.02,0.00,31.5,28.6,00.0,39.9,32.4,34.8,0000.0,0009.16,0005.47,0004.88
2022-08-08 14:29:00,,0833.1,4.99,0.00,31.7,28.7,00.0,39.9,32.5,32.0,0000.0,0009.23,0005.41,0004.80
2022-08-08 14:30:00,,0833.1,5.01,0.00,31.7,28.8,00.0,39.9,32.5,31.2,0000.0,0009.69,0005.33,0004.68
2022-08-08 14:31:00,,0833.1,5.00,0.00,31.8,28.9,00.0,39.9,32.5,31.4,0000.0,0009.67,0005.23,0004.57
2022-08-08 14:32:00,,0833.1,5.01,0.00,31.8,29.0,00.0,40.0,32.5,32.1,0000.0,0009.82,0005.10,0004.46
2022-08-08 14:33:00,,0833.1,5.00,0.00,31.8,29.1,00.0,40.0,32.5,32.5,0000.0,0009.69,0004.97,0004.36
2022-08-08 14:34:00,,0833.1,4.99,0.00,31.7,29.2,00.0,40.0,32.5,32.6,0000.0,0010.06,0004.87,0004.28
2022-08-08 14:35:00,,0833.1,5.02,0.00,31.7,29.0,00.0,40.0,32.5,32.3,0000.0,0010.38,0004.80,0004.25
2022-08-08 14:36:00,,0833.1,4.99,0.00,31.7,28.4,00.0,40.0,32.4,32.0,0000.0,0010.51,0004.74,0004.21
2022-08-08 14:37:00,,0833.1,5.01,0.00,31.6,27.9,00.0,39.9,32.3,33.2,0000.0,0010.73,0004.73,0004.19
2022-08-08 14:38:00,,0833.0,4.98,0.00,31.5,27.8,00.0,39.9,32.2,33.5,0000.0,0011.08,0004.68,0004.14
2022-08-08 14:39:00,,0833.0,5.01,0.00,31.3,27.8,00.0,39.9,32.1,33.1,0000.0,0010.74,0004.63,0004.10
2022-08-08 14:40:00,,0833.0,4.99,0.00,31.3,27.9,00.0,39.8,32.1,33.3,0000.0,0010.71,0004.66,0004.13
2022-08-08 14:41:00,,0833.0,5.00,0.00,31.2,28.1,00.0,39.8,32.1,33.4,0000.0,0010.20,0004.67,0004.15
2022-08-08 14:42:00,,0833.0,5.01,0.00,31.1,28.2,00.0,39.8,32.1,33.2,0000.0,0010.11,0004.66,0004.16
2022-08-08 14:43:00,,0833.0,5.00,0.00,31.1,28.4,00.0,39.8,32.1,33.4,0000.0,0010.00,0004.64,0004.17
2022-08-08 14:44:00,,0833.0,5.00,0.00,31.1,28.5,00.0,39.7,32.2,32.5,0000.0,0010.16,0004.64,0004.18
2022-08-08 14:45:00,,0833.1,4.99,0.00,31.0,28.6,00.0,39.7,32.2,32.9,0000.0,0009.79,0004.67,0004.21
2022-08-08 14:46:00,,0833.1,5.01,0.00,31.0,28.7,00.0,39.7,32.2,33.2,0000.0,0009.40,0004.68,0004.22
2022-08-08 14:47:00,,0833.0,5.00,0.00,31.0,28.8,00.0,39.7,32.2,32.8,0000.0,0009.08,0004.72,0004.24
2022-08-08 14:48:00,,0833.0,5.00,0.00,31.0,28.9,00.0,39.7,32.3,32.9,0000.0,0009.00,0004.73,0004.26
2022-08-08 14:49:00,,0833.0,5.00,0.00,31.0,29.0,00.0,39.7,32.3,33.5,0000.0,0008.89,0004.75,0004.27
2022-08-08 14:50:00,,0833.1,5.00,0.00,31.0,28.8,00.0,39.6,32.3,34.3,0000.0,0009.04,0004.80,0004.29
2022-08-08 14:51:00,,0833.0,4.99,0.00,30.9,28.2,00.0,39.6,32.2,34.5,0000.0,0008.91,0004.78,0004.32
2022-08-08 14:52:00,,0833.1,5.00,0.00,30.9,27.8,00.0,39.5,32.1,34.5,0000.0,0008.91,0004.80,0004.35
2022-08-08 14:53:00,,0833.0,4.99,0.00,30.8,27.7,00.0,39.5,31.9,34.5,0000.0,0008.97,0004.85,0004.40
2022-08-08 14:54:00,,0833.0,4.99,0.00,30.8,27.8,00.0,39.5,31.9,35.4,0000.0,0008.67,0004.89,0004.43
2022-08-08 14:55:00,,0833.0,5.01,0.00,30.9,27.9,00.0,39.4,32.1,35.6,0000.0,0008.80,0004.92,0004.44
2022-08-08 14:56:00,,0833.1,4.99,0.00,31.2,28.1,00.0,39.4,32.3,34.9,0000.0,0009.81,0004.93,0004.44
2022-08-08 14:57:00,,0833.1,5.00,0.00,31.5,28.3,00.0,39.4,32.3,34.1,0000.0,0010.28,0004.94,0004.45
2022-08-08 14:58:00,,0833.1,5.01,0.00,31.6,28.4,00.0,39.4,32.3,33.6,0000.0,0010.32,0004.93,0004.45
2022-08-08 14:59:00,,0833.1,5.00,0.00,31.6,28.6,00.0,39.5,32.3,33.0,0000.0,0010.55,0004.96,0004.45
